Vertical_Velocity
-0 -0 -1 -3 -5 -5 -2 -1 1 2 -9 -9 -1 5 3 0 2 4 -4 -2 3 -4 13 -2 4 -0 4 4 1 7 5 0 -1 3 0 -2 -3 3 10 8 8 -2 1 -8
-1 -1 -2 -2 -7 -7 -2 -1 15 -17 -5 -2 -8 4 2 -2 12 16 1 -4 -2 -7 -2 17 3 -0 1 6 5 2 2 -1 5 -1 -1 -2 2 4 6 7 2 1 2 1
-2 -0 -3 -5 -5 -6 -2 0 7 -2 -2 -5 -2 -3 0 3 11 9 2 5 1 3 12 3 11 11 -6 3 -4 0 3 1 3 7 -0 -4 1 -1 6 10 2 1 2 5
-0 0 -4 -3 -6 -2 -4 -0 5 -2 -4 -4 -1 -7 0 9 10 0 5 0 3 -1 3 -3 -7 24 10 -9 -3 -1 -1 0 3 5 3 -0 1 -1 4 1 8 -5 6 -4
-1 -1 -2 -4 -9 -2 -4 -3 0 -2 1 -3 -1 -6 -2 2 9 2 12 0 -1 1 -4 8 16 1 -2 2 9 -1 3 -0 1 4 2 -0 -3 2 5 2 4 1 3 -4
-4 -2 2 -3 -5 -2 -2 1 1 0 -2 -4 -1 -5 -1 -5 -7 3 -5 -2 -1 -5 6 -5 5 2 -1 -1 -5 -1 1 -4 -0 4 1 -1 3 6 -5 -1 3 3 -7 -4
-4 -1 -4 -1 -2 -2 -0 -0 -2 2 1 -1 -4 -3 1 -2 -5 5 1 3 0 2 -1 -4 -2 2 1 -6 -3 1 -1 4 1 2 -1 -3 4 -6 -2 -4 -3 9 2 2
-1 -3 -3 -2 -2 -5 2 -1 -1 1 1 -3 0 -1 -1 -2 -2 1 3 -2 10 17 -4 -3 -2 -0 -0 4 1 -3 1 -5 -2 -11 -1 6 3 -5 -1 -7 4 1 5 -2
-2 -4 -2 -2 -3 -2 -2 -3 -0 1 -1 1 -3 2 -2 -2 1 1 1 -3 2 16 47 -9 -6 -4 3 0 4 -1 -2 -2 -4 1 1 2 -2 -3 -5 -5 4 4 3 -1
-2 -2 -3 -3 -2 -2 -2 -2 -0 -2 3 -2 -2 2 -4 3 1 -0 1 -3 2 16 11 6 3 1 -1 -2 1 -1 -5 -4 -2 -1 -7 -0 -1 -1 -4 -3 11 -3 0 -7
-1 -1 -1 -3 -3 -2 -0 -5 -3 -3 3 -2 -2 -2 2 2 -1 -3 6 -0 0 -1 2 2 -1 1 -1 -0 -1 0 1 -2 4 -1 -6 10 -8 -11 -1 -3 2 3 -3 -2
-0 -1 -1 -2 -1 -2 1 -2 -4 -4 -3 8 -4 -3 5 2 -11 -1 3 4 18 -2 -6 -1 0 5 2 0 1 -1 -2 5 2 -5 -2 5 -2 -2 -3 6 0 6 -4 -4
-0 1 -0 0 0 -2 -6 3 -8 -3 -2 3 -7 13 -16 -3 1 -6 0 28 1 -0 -9 -3 -3 -1 2 -2 2 2 2 29 14 -6 -3 1 -1 -1 -2 -1 2 1 -6 36
0 0 1 3 2 -1 5 -2 5 4 -6 -8 -3 -3 -4 -13 -9 2 6 5 7 -4 -1 -1 2 -0 3 1 3 -2 -2 -2 0 -3 -2 0 -0 1 0 1 4 5 -6 -4
0 1 3 3 -0 8 13 8 1 19 7 5 -3 3 1 -0 1 -6 6 3 5 3 3 1 -3 -3 5 3 3 3 11 -3 -3 -0 0 -3 -3 -2 -3 -2 -1 2 4 3
-0 1 2 1 1 2 9 -2 8 13 3 1 -0 1 -5 3 2 -1 2 2 0 0 0 -1 4 4 4 35 21 -1 -1 -1 -2 -0 -2 20 -2 6 3 -0 2 8 21 18
1 1 -0 2 3 7 8 6 12 -3 -1 1 -1 -3 0 0 1 0 -1 -1 1 -0 -3 7 2 3 6 10 25 7 0 -2 8 -1 6 9 -3 12 -4 -2 -1 1 3 -0
1 1 -0 -2 3 2 -3 -3 -3 -3 -2 -2 -5 -7 -2 -5 -6 -3 -1 2 -3 0 3 5 -4 0 -3 4 13 3 -1 3 1 2 2 -1 -3 0 1 4 -1 -1 -0 2
-1 1 2 3 1 -3 -3 -3 -4 -2 -0 3 -1 -2 -3 -5 -7 -5 -3 -7 -3 -4 -0 -2 -4 -2 -3 -3 -3 -1 -0 1 -2 -2 -2 2 2 1 1 -2 -3 3 -1 1
5 -0 1 -1 -3 -0 -3 -2 -2 -2 -0 2 2 1 3 1 2 4 1 1 0 -2 -2 -4 -2 2 -1 -1 -2 -2 -1 1 -0 -1 -6 -4 -1 -1 1 1 -1 0 -2 -2
0 0 1 -0 -2 -0 2 1 -4 0 -1 -1 2 5 -1 1 -1 11 4 2 2 -1 -2 -4 -5 3 -3 -5 -3 -1 -5 -4 0 1 -1 -2 -2 -1 -4 -4 -3 -3 -4 -3
3 1 3 2 0 1 -2 -4 1 -0 -0 4 3 1 3 10 1 0 1 2 2 2 -1 -4 -3 -5 -1 -0 -1 -1 -1 -1 -2 -4 -4 -3 -1 2 5 5 0 -1 -1 -0
3 -3 1 -0 -2 -6 -1 1 2 1 -0 -2 -0 1 1 4 2 -2 -1 -1 -1 -0 -0 -1 -3 -1 -1 1 5 4 -1 -4 -3 -2 0 2 -0 -2 -5 -4 1 6 4 1
3 2 2 0 -2 4 5 2 -2 1 2 1 1 2 -1 0 1 1 3 1 1 2 1 -3 -0 -0 -1 -3 -4 -4 -1 2 4 5 4 3 1 -1 -2 -3 -2 -2 -1 -0
-1 -0 1 2 1 -1 -3 -2 0 -1 -1 0 0 0 1 2 2 2 3 -0 0 2 -2 -2 -3 -3 -3 -2 -2 -2 -2 -3 -2 -3 -3 -3 -1 0 1 1 1 1 1 1
-1 4 3 4 2 -0 -0 -0 -1 1 -0 1 0 0 1 0 0 1 -0 -1 2 2 -2 -2 -1 -1 -1 -1 -1 -1 -1 -2 -2 -2 -2 -2 -3 -3 -3 -3 -2 -1 -1 -1
-1 2 7 -1 1 1 2 0 0 -0 0 0 -0 -0 -2 1 -1 -1 -1 -2 -2 -1 -1 1 0 0 -0 -0 -0 -1 -0 -1 -0 -2 -1 -1 -1 -1 -0 0 -0 -0 -0 -0
Height
5555 5553 5550 5547 5544 5542 5538 5535 5530 5525 5523 5521 5520 5521 5521 5522 5525 5525 5529 5536 5540 5545 5552 5553 5558 5564 5569 5570 5573 5577 5579 5582 5584 5588 5589 5590 5589 5592 5595 5598 5601 5605 5609 5613
5544 5541 5539 5535 5531 5528 5524 5521 5515 5505 5502 5499 5494 5494 5496 5499 5505 5509 5513 5520 5525 5531 5540 5547 5551 5555 5561 5563 5567 5569 5572 5575 5579 5582 5584 5586 5587 5588 5590 5593 5596 5601 5607 5611
5534 5531 5527 5523 5517 5514 5510 5506 5500 5490 5489 5487 5484 5484 5487 5489 5492 5496 5500 5507 5513 5520 5529 5535 5541 5547 5551 5555 5559 5564 5566 5569 5571 5576 5576 5579 5583 5584 5586 5588 5591 5597 5602 5607
5524 5520 5515 5510 5503 5499 5495 5490 5487 5481 5481 5479 5478 5479 5484 5486 5489 5492 5495 5500 5504 5509 5517 5525 5533 5538 5543 5547 5552 5558 5560 5562 5565 5569 5571 5572 5576 5579 5580 5582 5586 5589 5596 5598
5513 5508 5502 5496 5490 5485 5482 5479 5477 5475 5474 5473 5473 5475 5479 5482 5485 5490 5494 5494 5495 5500 5509 5518 5525 5530 5535 5538 5545 5550 5553 5557 5559 5562 5565 5567 5569 5574 5575 5576 5579 5581 5588 5591
5501 5497 5491 5484 5479 5477 5473 5471 5470 5470 5470 5468 5470 5472 5475 5479 5481 5486 5487 5490 5491 5496 5504 5509 5517 5522 5528 5532 5537 5543 5546 5549 5553 5556 5558 5561 5565 5569 5569 5572 5574 5576 5580 5587
5490 5485 5479 5474 5469 5468 5467 5466 5466 5466 5467 5466 5468 5470 5472 5475 5478 5483 5484 5487 5489 5496 5499 5506 5512 5516 5522 5527 5532 5536 5540 5544 5546 5550 5552 5555 5559 5562 5565 5568 5571 5573 5576 5579
5480 5475 5469 5465 5462 5461 5461 5460 5460 5460 5462 5462 5464 5467 5469 5472 5474 5478 5482 5484 5487 5493 5496 5501 5506 5510 5517 5523 5526 5530 5534 5537 5539 5542 5547 5550 5553 5555 5559 5561 5567 5570 5572 5574
5470 5465 5461 5458 5456 5455 5455 5454 5454 5454 5456 5457 5459 5463 5465 5469 5472 5476 5479 5481 5485 5490 5493 5495 5500 5505 5512 5518 5522 5524 5528 5532 5535 5538 5540 5543 5547 5550 5553 5557 5563 5566 5568 5570
5461 5458 5454 5452 5451 5450 5450 5449 5449 5450 5452 5453 5455 5458 5461 5466 5470 5472 5476 5479 5482 5487 5489 5493 5497 5502 5507 5513 5517 5520 5523 5526 5529 5532 5533 5538 5542 5545 5548 5553 5562 5560 5563 5565
5453 5451 5448 5447 5447 5447 5447 5446 5446 5446 5447 5448 5450 5453 5457 5462 5466 5470 5475 5479 5482 5485 5488 5492 5496 5500 5504 5509 5512 5515 5519 5522 5525 5527 5529 5534 5537 5541 5545 5549 5552 5555 5559 5562
5445 5444 5442 5443 5443 5443 5444 5443 5442 5443 5444 5446 5446 5449 5454 5457 5463 5467 5472 5478 5479 5481 5484 5490 5494 5498 5502 5507 5510 5513 5518 5520 5521 5524 5525 5527 5531 5535 5538 5545 5548 5551 5556 5557
5438 5439 5438 5438 5439 5438 5438 5439 5438 5439 5440 5440 5441 5445 5447 5454 5459 5464 5470 5474 5477 5480 5485 5487 5491 5496 5500 5504 5508 5510 5513 5518 5517 5519 5521 5523 5525 5528 5531 5537 5541 5543 5549 5548
5433 5433 5433 5433 5434 5434 5433 5432 5434 5434 5435 5436 5437 5439 5444 5447 5454 5458 5466 5471 5476 5478 5482 5484 5489 5494 5498 5502 5506 5510 5512 5513 5514 5516 5518 5520 5521 5523 5525 5531 5535 5538 5541 5544
5427 5427 5427 5428 5430 5430 5429 5429 5429 5430 5432 5431 5431 5436 5438 5443 5450 5458 5464 5470 5474 5477 5480 5484 5489 5493 5497 5501 5504 5506 5506 5510 5513 5514 5516 5518 5520 5521 5523 5526 5528 5530 5535 5538
5421 5421 5422 5423 5424 5425 5426 5424 5426 5427 5425 5426 5428 5433 5437 5443 5450 5457 5462 5467 5473 5477 5480 5484 5487 5491 5494 5493 5500 5503 5505 5508 5510 5513 5512 5514 5516 5517 5519 5522 5524 5526 5529 5531
5416 5416 5417 5418 5418 5419 5421 5423 5424 5423 5425 5426 5430 5434 5440 5444 5450 5457 5462 5468 5474 5477 5480 5482 5486 5490 5490 5493 5497 5500 5504 5507 5508 5509 5509 5511 5513 5514 5517 5517 5519 5520 5522 5523
5411 5412 5412 5412 5413 5415 5417 5418 5421 5424 5427 5430 5433 5438 5443 5449 5453 5458 5463 5468 5473 5476 5479 5482 5485 5489 5490 5492 5495 5497 5500 5503 5504 5505 5506 5507 5509 5511 5513 5513 5514 5514 5516 5518
5408 5409 5409 5410 5411 5413 5416 5420 5423 5426 5431 5433 5437 5441 5446 5451 5456 5460 5464 5469 5472 5476 5479 5481 5484 5487 5489 5491 5494 5495 5497 5499 5500 5501 5503 5504 5505 5507 5508 5508 5509 5510 5511 5512
5405 5406 5407 5409 5411 5415 5419 5423 5426 5429 5433 5437 5441 5445 5449 5452 5456 5461 5465 5468 5471 5475 5479 5480 5483 5485 5487 5489 5491 5492 5494 5496 5497 5497 5498 5499 5499 5500 5500 5501 5502 5503 5503 5503
5402 5403 5407 5410 5414 5418 5422 5426 5429 5433 5437 5440 5443 5447 5451 5455 5457 5461 5464 5467 5471 5473 5477 5479 5480 5482 5483 5484 5486 5486 5488 5490 5491 5491 5492 5492 5492 5492 5492 5492 5492 5493 5493 5494
5401 5405 5409 5413 5416 5420 5424 5428 5433 5436 5439 5442 5446 5449 5452 5455 5457 5461 5464 5466 5469 5471 5474 5475 5476 5477 5477 5479 5480 5481 5481 5481 5482 5483 5483 5483 5484 5484 5483 5482 5482 5482 5483 5483
5401 5405 5410 5415 5419 5422 5425 5431 5436 5440 5443 5446 5449 5452 5454 5457 5460 5461 5464 5466 5468 5470 5471 5472 5471 5472 5473 5474 5476 5477 5477 5476 5475 5475 5474 5473 5474 5474 5474 5474 5473 5472 5472 5472
5403 5407 5412 5417 5421 5426 5431 5435 5438 5442 5445 5448 5450 5453 5455 5458 5460 5461 5464 5466 5467 5468 5468 5468 5470 5470 5471 5471 5471 5471 5470 5470 5469 5469 5468 5467 5466 5465 5464 5463 5462 5462 5461 5460
5405 5411 5416 5420 5423 5426 5431 5435 5439 5442 5445 5448 5451 5453 5456 5458 5460 5461 5464 5465 5466 5466 5466 5467 5468 5468 5469 5468 5468 5467 5466 5465 5464 5462 5461 5460 5458 5457 5456 5454 5453 5451 5450 5449
5409 5414 5419 5423 5426 5428 5433 5437 5441 5444 5447 5449 5452 5453 5456 5458 5459 5461 5461 5463 5464 5464 5464 5465 5466 5465 5465 5464 5463 5462 5461 5460 5458 5456 5455 5453 5451 5449 5447 5445 5443 5441 5439 5437
5414 5419 5423 5425 5428 5432 5436 5440 5444 5446 5448 5450 5452 5453 5455 5457 5457 5458 5459 5460 5461 5461 5462 5462 5462 5461 5460 5459 5458 5456 5454 5453 5450 5448 5446 5444 5442 5440 5437 5435 5432 5430 5428 5425